Lapse_Rate
6.5 6.4 6.5 6.5 6.5 6.3 6.3 6.2 6.2 6.1 5.7 5.5 5.6 5.6 5.6 5.7 5.8 5.6 5.4 5.6 5.5 5.5 5.4 5.3 5.7 5.1 5.2
6.3 6.6 6.1 6.1 6.3 6.2 6.4 6.3 6.1 6.0 5.8 5.6 5.6 5.5 5.5 5.9 6.1 5.7 5.9 5.9 5.7 5.8 5.8 5.6 5.8 5.4 5.1
5.3 5.9 6.3 5.8 6.0 6.3 6.5 6.1 6.2 5.8 5.6 5.4 5.5 5.7 6.0 6.2 6.1 6.2 5.8 5.6 5.6 5.7 6.1 5.9 5.8 5.3 5.0
5.0 5.2 5.5 5.7 5.8 5.8 5.7 5.7 5.5 5.5 5.4 5.4 6.0 5.9 6.4 6.5 6.5 6.6 6.2 6.1 5.9 5.9 6.0 5.7 5.8 5.5 5.3
5.4 5.3 5.2 5.3 5.4 5.7 5.4 5.3 5.7 5.5 5.8 5.9 6.2 6.3 6.2 6.0 6.2 5.9 6.5 6.3 6.2 6.0 5.9 6.1 6.0 5.7 5.7
5.2 5.2 5.2 5.1 5.6 5.5 5.5 5.6 5.6 6.3 6.2 6.1 6.6 6.5 6.3 6.1 6.1 6.3 6.3 6.2 6.1 6.0 6.0 6.2 6.1 5.8 5.9
5.7 5.5 5.4 5.9 6.0 5.9 5.9 6.4 6.2 6.2 6.3 6.6 6.3 6.3 6.3 6.1 6.3 6.3 6.3 6.2 6.2 6.1 6.0 6.2 6.1 5.8 6.1
5.8 6.0 5.9 5.8 5.8 6.4 6.1 6.3 6.3 5.9 6.4 6.2 6.0 6.1 6.2 6.4 6.1 6.3 6.2 6.3 6.2 6.3 6.2 5.9 5.9 5.9 6.2
6.4 6.0 5.9 5.9 6.3 6.4 6.4 6.2 6.0 6.3 6.3 6.3 6.5 6.2 6.3 6.4 6.2 6.5 6.5 6.4 6.3 6.3 6.2 6.2 6.1 6.2 6.1
6.4 6.4 6.3 6.3 6.2 6.6 6.2 6.7 6.7 6.8 7.1 6.9 6.8 6.7 7.0 7.2 7.0 6.8 6.6 6.2 6.2 6.2 6.3 6.3 6.3 6.0 5.7
6.2 6.2 6.3 6.5 6.8 6.9 6.8 6.9 7.0 7.1 7.1 7.1 7.3 7.3 7.1 7.2 7.1 6.7 6.6 6.1 6.0 6.4 6.4 6.2 6.0 5.7 5.7
6.1 6.2 6.5 6.8 6.8 6.9 7.1 7.1 7.2 7.2 7.2 7.1 7.1 7.2 7.0 7.1 6.9 6.6 6.1 6.2 6.1 6.4 6.1 6.1 5.7 5.6 5.6
6.5 6.6 6.6 6.6 6.6 6.7 6.8 6.9 7.0 7.1 7.1 7.1 7.0 7.0 6.8 6.8 6.3 6.1 6.1 6.2 6.1 6.0 6.1 5.7 5.4 5.2 5.1
6.6 6.6 6.4 6.7 6.9 7.0 7.0 6.6 6.4 6.1 6.3 6.4 6.3 6.1 6.1 6.0 6.0 6.1 6.2 6.2 6.0 5.7 5.5 5.4 5.2 5.1 4.7
6.2 6.4 6.5 6.6 6.9 6.9 6.9 6.9 6.7 6.7 6.7 6.6 6.2 5.8 5.7 5.7 6.0 6.3 6.2 6.1 5.5 5.2 5.2 5.0 4.9 4.9 4.9
6.3 6.3 6.5 6.6 6.6 6.6 6.5 6.5 6.6 6.6 6.4 6.2 6.0 6.2 6.1 6.2 6.0 5.9 5.7 5.7 5.3 5.0 4.8 4.9 4.8 4.8 4.8
6.2 6.3 6.4 6.5 6.5 6.7 6.9 6.9 7.0 6.9 6.7 6.0 6.0 5.7 5.7 5.9 5.9 5.8 5.6 5.0 4.9 4.9 4.8 4.7 4.6 4.7 4.5
Wind_Speed
5 4 5 6 10 21 23 23 24 26 25 25 25 25 24 23 21 20 17 16 15 13 13 12 11 8 9
5 4 7 5 7 6 14 19 20 21 25 27 26 25 25 25 23 21 18 17 16 15 14 12 11 9 9
11 4 5 3 5 5 6 14 16 17 21 26 27 27 25 25 23 22 20 18 18 16 15 14 12 9 8
10 10 6 4 3 5 7 4 7 12 19 21 22 25 26 26 26 24 23 19 21 18 16 15 12 10 9
10 10 8 4 7 3 7 7 4 5 6 8 12 16 22 28 24 24 23 21 22 21 18 16 15 13 10
11 12 14 10 7 7 5 3 3 8 5 7 11 9 15 19 22 25 25 25 23 21 19 19 16 14 11
12 13 13 11 9 6 8 7 8 3 4 3 6 9 14 17 24 28 27 26 24 22 23 18 17 14 12
9 12 12 8 8 10 9 5 1 2 3 4 4 5 6 15 23 28 28 28 24 24 23 19 17 14 12
18 14 21 17 6 3 3 3 3 4 7 2 3 2 3 6 15 25 27 26 24 24 23 18 16 15 13
11 9 13 14 15 9 5 7 4 2 6 6 4 3 3 2 5 12 18 24 23 24 21 17 17 10 8
8 7 6 6 5 7 8 7 6 7 6 5 3 3 2 1 1 5 10 10 14 18 16 16 17 13 4
8 7 6 6 6 6 8 9 11 8 11 12 3 5 4 2 3 3 4 6 8 4 7 11 16 16 14
8 8 6 7 4 2 3 4 4 4 10 16 4 6 5 3 3 3 3 4 5 4 5 5 3 4 2
8 7 5 2 3 3 2 2 3 2 6 14 12 6 4 4 4 4 3 4 6 5 5 4 7 10 8
7 8 7 6 5 3 2 2 5 2 3 3 6 7 4 6 4 5 5 3 5 5 5 4 4 6 8
7 7 7 7 7 3 4 5 6 5 4 4 4 2 1 1 4 6 5 5 4 6 4 4 4 4 9
8 8 7 7 8 6 5 5 6 6 5 4 6 4 5 6 1 11 5 4 6 5 5 3 2 3 7
Wind_Direction
234 226 231 227 232 230 231 229 234 230 230 235 238 242 244 243 243 244 247 249 255 261 263 265 267 281 295
242 237 220 212 227 215 225 229 230 231 230 232 235 238 240 241 241 241 242 246 245 254 259 262 266 266 289
247 223 229 203 223 230 218 234 237 234 231 231 236 241 242 240 240 242 245 245 242 242 250 252 255 257 276
243 249 234 217 199 230 243 218 241 222 228 228 231 232 232 235 234 233 234 239 245 238 240 244 248 246 260
240 244 235 211 224 198 238 256 238 218 222 222 221 224 233 231 232 230 231 231 241 237 235 237 243 234 248
239 241 243 237 230 215 217 183 269 204 207 232 208 227 231 227 224 227 226 231 235 235 234 233 239 229 233
249 247 249 241 227 207 216 219 238 167 176 252 182 233 221 226 224 228 230 230 227 224 228 224 232 222 222
252 264 264 261 221 233 230 220 51 156 168 245 168 232 214 215 224 227 227 225 220 222 219 217 228 212 222
311 304 298 289 251 130 191 181 222 227 196 199 187 219 209 222 218 226 223 213 212 221 219 212 218 208 222
305 302 283 275 255 219 211 218 212 251 198 189 164 157 251 216 205 210 208 216 216 215 208 212 217 194 183
287 292 270 261 250 227 219 215 220 232 182 182 170 178 231 157 217 201 200 200 221 206 202 215 222 187 184
294 289 279 270 259 242 231 226 233 237 171 188 192 182 171 158 197 169 197 180 166 151 179 229 229 206 205
298 295 280 269 254 258 250 243 235 226 192 195 190 183 189 176 168 177 147 188 178 155 166 192 162 171 198
293 291 287 269 250 214 227 211 247 225 206 199 206 188 199 182 159 169 160 170 177 175 171 180 189 194 207
293 303 298 283 268 223 224 209 227 216 210 205 199 194 200 159 176 171 167 148 172 165 171 178 199 196 207
299 299 294 289 278 245 237 230 239 235 224 188 170 139 108 309 187 169 168 155 157 166 162 182 195 201 207
308 303 294 290 283 265 237 237 242 238 217 188 191 187 191 214 158 188 172 160 156 171 177 169 163 197 196